Armstrong, Ontario

9:40 AM EDT on July 21, 2017 (GMT -0400)
Armstrong

Weather History for CWYW - March, 2014

Change the Weather History Date:

Thursday, March 27, 2014

  Actual Average Record
Temperature  
Mean Temperature 21 °F -  
Max Temperature 31 °F 42 °F - ()
Min Temperature 11 °F 14 °F - ()
Degree Days  
Heating Degree Days 44    
Moisture  
Dew Point 11 °F    
Average Humidity 65    
Maximum Humidity 90    
Minimum Humidity 33    
Precipitation  
Precipitation 0.00 in 0.06 in - ()
Sea Level Pressure  
Sea Level Pressure 29.80 in    
Wind  
Wind Speed 2 mph ()    
Max Wind Speed 5 mph    
Max Gust Speed -    
T = Trace of Precipitation, MM = Missing Value Source: Averaged Metar Reports

Daily Weather History Graph

Daily Weather History Graph

Search for Another Location

Airport or City:

Trip Planner

Search our weather history database for the weather conditions in past years. The results will help you decide how hot, cold, wet, or windy it might be!

Date:

Astronomy

Mar. 27, 2014 Rise Set
Actual Time 7:42 AM EDT 8:19 PM EDT
Civil Twilight 7:10 AM EDT 8:52 PM EDT
Nautical Twilight 6:31 AM EDT 9:31 PM EDT
Astronomical Twilight 5:50 AM EDT 10:12 PM EDT
Moon 5:53 AM EDT (3/27) 4:49 PM EDT (3/27)
Length of Visible Light 13h 42m
Length of Day
12h 37m
Waning Crescent, 13% of the Moon is Illuminated
Mar 27
Waning Crescent
Mar 30
New
Apr 7
First Quarter
Apr 15
Full
Apr 22
Last Quarter

Hourly Weather History & Observations

Time (EDT) Temp. Windchill Dew Point Humidity Pressure Visibility Wind Dir Wind Speed Gust Speed Precip Events Conditions
12:00 AM 16.3 °F - 7.9 °F 69% 29.87 in - SSE 2.3 mph - N/A   Unknown
1:00 AM 15.6 °F - 7.7 °F 71% 29.86 in - SE 2.3 mph - N/A   Unknown
2:00 AM 15 °F - 8 °F 62% 29.84 in - SE 2.3 mph - -  
2:00 AM 14.7 °F - 7.9 °F 74% 29.84 in - SE 1.2 mph - N/A   Unknown
3:00 AM 14.7 °F - 10.2 °F 82% 29.82 in - SE 2.3 mph - N/A   Unknown
4:00 AM 16.0 °F - 13.5 °F 90% 29.81 in - SE 2.3 mph - N/A   Unknown
5:00 AM 16 °F - 13 °F 85% 29.79 in - SE 4.6 mph - -  
5:00 AM 16.3 °F 10.8 °F 13.5 °F 88% 29.79 in - SE 3.5 mph - N/A   Unknown
6:00 AM 16.2 °F - 13.5 °F 89% 29.79 in - SE 2.3 mph - N/A   Unknown
7:00 AM 15.6 °F - 13.1 °F 90% 29.79 in - ESE 2.3 mph - N/A   Unknown
8:00 AM 13 °F - 9 °F 78% 29.81 in - NE 1.2 mph - -  
8:00 AM 12.6 °F - 9.3 °F 87% 29.81 in - NE 1.2 mph - N/A   Unknown
9:00 AM 12.7 °F - 9.3 °F 86% 29.81 in - Calm Calm - N/A   Unknown
10:00 AM 19.0 °F - 12.0 °F 74% 29.80 in - SSE 1.2 mph - N/A   Unknown
11:00 AM 23 °F - 12 °F 50% 29.79 in - West 1.2 mph - -  
11:00 AM 23.2 °F - 12.0 °F 62% 29.79 in - SW 1.2 mph - N/A   Unknown
12:00 PM 26.4 °F 20.9 °F 12.9 °F 57% 29.79 in - North 4.6 mph - N/A   Unknown
1:00 PM 27.0 °F - 13.5 °F 57% 29.78 in - NNE 2.3 mph - N/A   Unknown
2:00 PM 29 °F - 13 °F 37% 29.78 in - ENE 2.3 mph - -  
2:00 PM 29.5 °F - 12.7 °F 50% 29.78 in - East 1.2 mph - N/A   Unknown
3:00 PM 30.7 °F 27.3 °F 12.0 °F 46% 29.77 in - East 3.5 mph - N/A   Unknown
4:00 PM 30.6 °F - 11.8 °F 46% 29.77 in - SSW 1.2 mph - N/A   Unknown
5:00 PM 31 °F - 13 °F 33% 29.77 in - NNE 1.2 mph - -  
5:00 PM 31.3 °F - 12.7 °F 46% 29.77 in - ENE 2.3 mph - N/A   Unknown
6:00 PM 31.1 °F 27.7 °F 11.3 °F 44% 29.76 in - North 3.5 mph - N/A   Unknown
7:00 PM 30.2 °F - 12.6 °F 48% 29.76 in - NNW 2.3 mph - N/A   Unknown
8:00 PM 28 °F - 12 °F 36% 29.78 in - NNE 3.5 mph - -  
8:00 PM 28.4 °F 24.6 °F 11.7 °F 50% 29.78 in - NNE 3.5 mph - N/A   Unknown
9:00 PM 22.3 °F - 10.0 °F 59% 29.80 in - NE 1.2 mph - N/A   Unknown
10:00 PM 16.3 °F - 8.8 °F 72% 29.79 in - NW 1.2 mph - N/A   Unknown
11:00 PM 11 °F - 7 °F 77% 29.79 in - NNW 1.2 mph - -  
11:00 PM 11.5 °F - 7.2 °F 83% 29.79 in - NNW 1.2 mph - N/A   Unknown